Regional Weather Roundup
Issued by NWS

Home | Current Version | Previous Version | Text Only | Print | Product List | Glossary Off
Versions: 1 2 3 4 5 6 7 8 9 10 11 12 13 14 15 16 17 18 19 20 21 22 23 24 25 26 27

000
ASUS45 KSLC 171310
RWRUT

UTAH REGIONAL WEATHER ROUNDUP
NATIONAL WEATHER SERVICE SALT LAKE CITY UT
700 AM MDT THU APR 17 2014

UTZ001>011-023>025-171400-

NORTHERN UTAH

CITY           SKY/WX    TMP DP  RH WIND       PRES   REMARKS
HILL AFB       CLEAR     37  14  38 E15       30.04R WCI  28
LOGAN          CLEAR     31  24  75 CALM      30.05R
OGDEN          CLEAR     38  16  40 S10       30.03R WCI  31
PROVO AIRPORT  PTCLDY    37  25  60 CALM      30.08R
SALT LAKE CITY PTCLDY    39  21  48 SE9       30.04R WCI  33
VERNAL         PTCLDY    32  19  58 NW6       30.08R WCI  26
WENDOVER       PTCLDY    39  18  41 CALM      30.03R
HEBER CITY     CLEAR     23  18  80 CALM      30.10R
WEST JORDAN    CLEAR     37  27  65 S8        30.05R WCI  31

$$

UTZ012>022-026-027-171400-

SOUTHERN UTAH

CITY           SKY/WX    TMP DP  RH WIND       PRES   REMARKS
BRYCE CANYON   PTCLDY    23  19  85 W9        30.13R WCI  13
CEDAR CITY     CLEAR     30  19  63 N3        30.04R
MILFORD        CLEAR     32  17  54 S6        30.04R WCI  26
MOAB/CYNLANDS  CLEAR     35  18  49 CALM      30.04R
PRICE          CLEAR     36  13  38 CALM      30.06R
ST GEORGE      SUNNY     52  21  30 S5        29.97S

$$

REGIONAL REPORTS     COLORADO/ARIZONA

CITY           SKY/WX    TMP DP  RH WIND       PRES   REMARKS
CRAIG, CO      CLEAR     20  18  92 CALM      30.12R
GRAND JUNCTION CLEAR     35  22  58 SE10      30.06R WCI  27
RIFLE          CLEAR     29  22  75 SE3       30.10R
MONTROSE       PTCLDY    31  24  75 SE7       30.11R WCI  24
CORTEZ         CLEAR     24  19  81 NE6       30.10R WCI  17
PAGE, AZ       CLEAR     48  25  40 CALM      30.03R
GRAND CANYON   CLEAR     26  16  65 NE3       30.10R
KINGMAN        CLEAR     58  16  19 SE13      29.92R
FLAGSTAFF      CLEAR     27  16  63 CALM      30.12R

$$

REGIONAL REPORTS    NEVADA/IDAHO/WYOMING

CITY           SKY/WX    TMP DP  RH WIND       PRES   REMARKS
LAS VEGAS, NV  PTCLDY    63  25  23 S10       29.83R
ELY            CLEAR     27  21  78 S10       30.08R WCI  17
ELKO           PTCLDY    33  23  66 CALM      30.03S
POCATELLO, ID  CLEAR     29  18  63 N6        30.03R WCI  23
BURLEY         PTCLDY    35  20  54 CALM      30.00R
EVANSTON, WY   CLEAR     28  12  51 S7        30.07S WCI  21
ROCK SPRINGS   MOCLDY    29  11  47 S3        30.07R

$$



USA.gov is the U.S. government's official web portal to all federal, state and local government web resources and services.